Regional Weather Roundup
Issued by NWS Charleston, SC

Current Version | Previous Version | Graphics & Text | Print | Product List | Glossary On
Versions: 1 2 3 4 5 6 7 8 9 10 11 12 13 14 15 16 17 18 19 20 21 22 23 24 25 26 27 28 29 30 31 32 33 34 35 36 37 38 39 40 41 42 43 44 45 46 47 48 49 50
000
ASUS42 KCHS 190912
RWRCHS

REGIONAL WEATHER ROUNDUP
NATIONAL WEATHER SERVICE CHARLESTON SC
400 AM EST SUN NOV 19 2017

NOTE: "FAIR" INDICATES FEW OR NO CLOUDS BELOW 12,000 FEET WITH NO
SIGNIFICANT WEATHER AND/OR OBSTRUCTIONS TO VISIBILITY.

NOT ALL STATIONS ARE QUALITY CONTROLLED. USE DATA WITH CAUTION...
ESPECIALLY DEWPOINT OBSERVATIONS.

SCZ027-030-031-034>040-042>050-191000-
...SOUTHEAST SOUTH CAROLINA...

CITY           SKY/WX    TMP DP  RH WIND       PRES   REMARKS
N CHARLESTON   MOCLDY    66  58  75 SW16G23   29.72S
WATERFRONT PRK NOT AVBL
JOHNS ISLAND   CLOUDY    66  59  77 SW16G25   29.74S
PINOPOLIS        N/A     64  57  77 SW12      29.63R
MONCKS CORNER  CLOUDY    64  57  77 SW13G21   29.72S
SUMMERVILLE    CLOUDY    63  57  82 S8        29.74R
BEAUFORT MCAS  NOT AVBL
BEAUFORT ARPT  CLOUDY    63  59  88 SW10G21   29.75S
HILTON HEAD IS PTCLDY    64  59  82 SW17G25   29.77F
WALTERBORO     CLOUDY    64  59  82 SW10G24   29.74S
ALLENDALE      CLOUDY    63  59  88 VRB3      29.74F

...SOUTHERN MIDLANDS AND PEE DEE...

CITY           SKY/WX    TMP DP  RH WIND       PRES   REMARKS
GEORGETOWN     CLOUDY    64  59  82 SW15G21   29.72S
KINGSTREE      CLOUDY    63  57  82 SW14G20   29.70R
ORANGEBURG     CLOUDY    61  56  83 SW10      29.71F
BARNWELL         N/A     63  59  88 SW10      29.72F
AIKEN          CLOUDY    55  55 100 SW14G20   29.75R
MANNING        DRIZZLE   61  61 100 MISG      29.72R
COLUMBIA       CLOUDY    65  56  72 W14       29.68R
SUMTER         LGT RAIN  64  55  72 SW13      29.64F
FLORENCE       MOCLDY    66  57  72 SW16G23   29.65F
MYRTLE BEACH   CLOUDY    66  57  72 SW14      29.70S
N MYRTLE BEACH MOCLDY    65  59  81 SW24G33   29.67F

$$

GAZ063-065-086>088-099>101-113>116-118-119-134>141-150-191000-
...SOUTHEAST GEORGIA...

CITY           SKY/WX    TMP DP  RH WIND       PRES   REMARKS
SAVANNAH ARPT  MOCLDY    65  60  84 SW15      29.76F
HUNTER AAF     PTCLDY    64  59  83 SW12      29.74F
FORT STEWART   CLOUDY    65  59  83 SW12      29.75F
STATESBORO     DRIZZLE   64  58  83 NW12G18   29.78R
SYLVANIA       RAIN      64  62  96 NW16G25   29.78R
CLAXTON        RAIN      68  63  83 SW6       29.77S

...CSRA...CENTRAL AND FAR SOUTHEAST GEORGIA...

CITY           SKY/WX    TMP DP  RH WIND       PRES   REMARKS
THOMSON        CLOUDY    56  49  77 N16G30    29.83R
AUGUSTA-BUSH   CLOUDY    61  56  83 W10       29.75R
AUGUSTA-DANIEL CLOUDY    61  56  83 VRB6      29.76R
SWAINSBORO     CLOUDY    59  59 100 W9        29.81R
VIDALIA        CLOUDY    61  59  94 NW5       29.81R
EASTMAN        CLOUDY    61  51  70 NW8       29.85S
HAZLEHURST     DRIZZLE   64  61  90 W7        29.81R
ALMA           LGT RAIN  66  62  87 SW9       29.80S
WAYCROSS       MOCLDY    65  62  90 SW13      29.80F
JESUP          PTSUNNY   64  61  88 SW5       29.80F
BAXLEY         CLOUDY    64  63  94 SW7       29.79R
BRUNSWICK      PTCLDY    64  59  82 SW14G21   29.82F
SAINT SIMONS   CLEAR     65  63  93 SW12      29.82S

$$

SCZ027-028-034-036>038-045-046-048>050-GAZ119-141-191000-
...LAKE AND SUPPLEMENTAL COASTAL OBSERVATIONS...

STATION/POSITION TIME  TEMP    WIND        PRES    WAVE   SWELL
                       AIR SEA DIR/SP/G            HT/PER HT/PER/DIR
                 (UTC) (F)     (DEG/KT/KT) (MB)    (FT/S) (FT/S/D)
WINYAH BAY       NOT AVBL
LAKE MURRAY      0820   64     250/ 15/ 22 1004.1
ACE BASIN NERRS  0745   64     180/  2     1007.0
FORT PULASKI     NOT AVBL
SAPELO ISLAND    0800   63     220/ 10     1010.0

$$

ANZ835-935-AMZ111-154-330-350-352-354-370-450-454-472-191000-
...C-MAN AND BUOY OBSERVATIONS...

STATION/POSITION TIME  TEMP    WIND        PRES    WAVE   SWELL
                       AIR SEA DIR/SP/G            HT/PER HT/PER/DIR
                 (UTC) (F)     (DEG/KT/KT) (MB)    (FT/S) (FT/S/D)
BUOY 41004       0850   73 75  220/ 25/ 31 1006.9F   8/ 7
BUOY 41008       0850   67 68  200/ 21/ 27 1008.8R   4/ 5   2/ 80/ 9
FOLLY BEACH CMAN NOT AVBL
CAPERS NEARSHORE 0808   64 63  220/ 21/ 29 1006.4F
FRIPP NEARSHORE  0808   62 62  210/ 19/ 33 1007.5F


STATION/POSITION TIME  TEMP    WIND        PRES    WAVE   SWELL
                       AIR SEA DIR/SP/G            HT/PER HT/PER/DIR
                 (UTC) (F)     (DEG/KT/KT) (MB)    (FT/S) (FT/S/D)
5E ST. MARYS GA  0830      66                N/A     3/12
FRYING PAN BUOY  0850   73 72  220/ 27/ 35 1005.9F  10/ 7
BUOY 41025       0850   69 65  220/ 19/ 25 1004.4F  10/ 8   3/180/14
CAPE LOOKOUT NC  0800          220/ 14/ 17 1005.3F
BUOY 41002       0850   74 77  210/ 17/ 21 1011.2F   5/ 5   2/ 60/ 8
BUOY 41010       NOT AVBL
ST AUGUSTINE FL  0900   63 68  210/  8/ 11 1011.7F


$$



USA.gov is the U.S. government's official web portal to all federal, state and local government web resources and services.